"SCET";"TARGET";"ELECTRON_DENSITY";"ERROR_FLAG";"ELECTRON_DENSITY_ERROR";"FREQ_FCE";"MEASURED_VALUE";"MEASURED_ITEM";"FREQ_PLASMA";"FREQ_UPPER_HYBRID";"FREQ_R_EQUALS_ZERO";"FREQ_L_EQUALS_ZERO";"ORBIT_NUMBER";"SATURN_RADIUS";"SATURN_IAU_LONGITUDE";"SATURN_SLS4_S_LONGITUDE";"SATURN_SLS4_N_LONGITUDE";"SATURN_SLS5_S_LONGITUDE";"SATURN_SLS5_N_LONGITUDE";"SATURN_LOCAL_TIME";"SATURN_KRONOGRAPHIC_LATITUDE";"SATURN_MAGNETIC_LATITUDE";"SATURN_L";"SATURN_L_OFFSET";"SATURN_SOLAR_EQUATORIAL_X";"SATURN_SOLAR_EQUATORIAL_Y";"SATURN_SOLAR_EQUATORIAL_Z";"SATURN_ALTITUDE";"ENCELADUS_ENCOUNTER_NUMBER";"ENCELADUS_RADIUS";"ENCELADUS_COROTATIONAL_X";"ENCELADUS_COROTATIONAL_Y";"ENCELADUS_COROTATIONAL_Z";"ENCELADUS_TRUE_ANOMALY";"ENCELADUS_PERIAPSIS_TIME";"JUPITER_RADIUS";"JUPITER_SYSTEMIII_LONGITUDE";"JUPITER_MAGNETIC_LATITUDE";"JUPITER_MAGNETIC_LOCAL_TIME";"JUPITER_L";"IO_PHASE";"EARTH_RADIUS";"EARTH_MAGNETIC_LATITUDE";"EARTH_LOCAL_TIME";"EARTH_L"
"[UTC]";"[0=Saturn, 1=Enceladus, 2=Jupiter, 3=Earth]";"[cm-3]";"[0=automated, 1=manual]";"[normalized density error]";"[Hz]";"[Hz]";"[0=upper hybrid frequency, 1=plasma frequency cutoff]";"[Hz]";"[Hz]";"[Hz]";"[Hz}";"[0, A, B, C, 3, 4, ... , 292, 293]";"[Rs where 1Rs=60268km]";"[degrees]";"[degrees]";"[degrees]";"[degrees]";"[degrees]";"[hours]";"[degrees]";"[degrees where offset=2293km north]";"[Rs where 1Rs=60268km]";"[Rs where 1Rs=60268km and offset=2293km north]";"[Rs where 1Rs=60268km]";"[Rs where 1Rs=60268km]";"[Rs where 1Rs=60268km]";"[km where ellipsoid a,b=60268km and c=54364km]";"[E0, E1, E2, ... , E21, E22]";"[Renc where 1Renc=252.1km]";"[Renc where 1Renc=252.1km]";"[Renc where 1Renc=252.1km]";"[Renc where 1Renc=252.1km]";"[degrees]";"[UTC]";"[Rj where 1Rj=71492km]";"[degrees]";"[degrees using JRM09 model]";"[hours using JRM09 model]";"[Rj where 1Rj=71492km]";"[degrees]";"[Re where 1Re=6378.1366km]";"[degrees]";"[hours]";"[Re where 1Re=6378.1366km]"
2001-01-20T00:00:25.908Z;2;1.6120e-01;1;     0.311;    37.502;   3605.327; 1;   3605.327;   3605.522;   3624.127;   3586.625;;;;;;;;;;;;;;;;;;;;;;;; 304.281; 189.048;   6.871;  20.362; 308.700; 303.886;;;;
2001-01-20T00:01:29.907Z;2;1.6860e-01;1;     0.304;    37.158;   3686.947; 1;   3686.947;   3687.134;   3705.573;   3668.415;;;;;;;;;;;;;;;;;;;;;;;; 304.290; 189.692;   6.886;  20.361; 308.728; 304.037;;;;
2001-01-20T00:02:33.907Z;2;1.6860e-01;1;     0.304;    35.855;   3686.947; 1;   3686.947;   3687.121;   3704.918;   3669.063;;;;;;;;;;;;;;;;;;;;;;;; 304.299; 190.336;   6.899;  20.360; 308.754; 304.188;;;;
2001-01-20T00:03:37.906Z;2;1.6860e-01;1;     0.304;    34.989;   3686.947; 1;   3686.947;   3687.113;   3704.483;   3669.494;;;;;;;;;;;;;;;;;;;;;;;; 304.307; 190.980;   6.911;  20.360; 308.778; 304.339;;;;
2001-01-20T00:04:41.906Z;2;1.6860e-01;1;     0.304;    35.246;   3686.947; 1;   3686.947;   3687.115;   3704.612;   3669.366;;;;;;;;;;;;;;;;;;;;;;;; 304.316; 191.624;   6.922;  20.359; 308.801; 304.490;;;;
2001-01-20T00:05:45.905Z;2;1.6860e-01;1;     0.304;    35.304;   3686.947; 1;   3686.947;   3687.116;   3704.641;   3669.337;;;;;;;;;;;;;;;;;;;;;;;; 304.325; 192.268;   6.931;  20.358; 308.822; 304.641;;;;
2001-01-20T00:06:49.905Z;2;1.6860e-01;1;     0.304;    34.240;   3686.947; 1;   3686.947;   3687.106;   3704.107;   3669.867;;;;;;;;;;;;;;;;;;;;;;;; 304.333; 192.912;   6.939;  20.358; 308.842; 304.792;;;;
2001-01-20T00:07:53.904Z;2;1.6120e-01;1;     0.311;    35.160;   3605.327; 1;   3605.327;   3605.498;   3622.950;   3587.790;;;;;;;;;;;;;;;;;;;;;;;; 304.342; 193.556;   6.946;  20.357; 308.859; 304.943;;;;
2001-01-20T00:08:57.904Z;2;1.6120e-01;1;     0.311;    33.933;   3605.327; 1;   3605.327;   3605.487;   3622.333;   3588.400;;;;;;;;;;;;;;;;;;;;;;;; 304.351; 194.200;   6.952;  20.356; 308.875; 305.094;;;;
2001-01-20T00:10:01.904Z;2;1.6860e-01;1;     0.304;    33.614;   3686.947; 1;   3686.947;   3687.100;   3703.792;   3670.178;;;;;;;;;;;;;;;;;;;;;;;; 304.359; 194.844;   6.956;  20.356; 308.890; 305.245;;;;
2001-01-20T00:11:05.903Z;2;1.5410e-01;1;     0.256;    33.522;   3525.513; 1;   3525.513;   3525.672;   3542.314;   3508.792;;;;;;;;;;;;;;;;;;;;;;;; 304.368; 195.488;   6.959;  20.355; 308.902; 305.396;;;;
2001-01-20T00:12:09.902Z;2;1.6120e-01;1;     0.311;    33.769;   3605.327; 1;   3605.327;   3605.485;   3622.251;   3588.482;;;;;;;;;;;;;;;;;;;;;;;; 304.376; 196.132;   6.960;  20.354; 308.913; 305.547;;;;
2001-01-20T00:13:13.902Z;2;1.6120e-01;1;     0.311;    33.271;   3605.327; 1;   3605.327;   3605.480;   3622.001;   3588.730;;;;;;;;;;;;;;;;;;;;;;;; 304.385; 196.776;   6.961;  20.354; 308.922; 305.698;;;;
2001-01-20T00:14:17.902Z;2;1.5410e-01;1;     0.256;    33.180;   3525.513; 1;   3525.513;   3525.669;   3542.142;   3508.962;;;;;;;;;;;;;;;;;;;;;;;; 304.394; 197.420;   6.960;  20.353; 308.930; 305.849;;;;
2001-01-20T00:15:21.901Z;2;1.5410e-01;1;     0.256;    33.285;   3525.513; 1;   3525.513;   3525.670;   3542.195;   3508.910;;;;;;;;;;;;;;;;;;;;;;;; 304.402; 198.064;   6.957;  20.352; 308.935; 306.000;;;;
2001-01-20T00:16:25.901Z;2;1.5410e-01;1;     0.256;    33.007;   3525.513; 1;   3525.513;   3525.667;   3542.055;   3509.048;;;;;;;;;;;;;;;;;;;;;;;; 304.411; 198.708;   6.954;  20.352; 308.939; 306.151;;;;
2001-01-20T00:17:29.900Z;2;1.5410e-01;1;     0.256;    32.425;   3525.513; 1;   3525.513;   3525.662;   3541.763;   3509.338;;;;;;;;;;;;;;;;;;;;;;;; 304.420; 199.352;   6.949;  20.351; 308.942; 306.303;;;;
2001-01-20T00:18:33.900Z;2;1.5410e-01;1;     0.256;    33.841;   3525.513; 1;   3525.513;   3525.675;   3542.474;   3508.633;;;;;;;;;;;;;;;;;;;;;;;; 304.428; 199.996;   6.943;  20.351; 308.942; 306.454;;;;
2001-01-20T00:19:37.899Z;2;1.5410e-01;1;     0.256;    35.532;   3525.513; 1;   3525.513;   3525.692;   3543.324;   3507.792;;;;;;;;;;;;;;;;;;;;;;;; 304.437; 200.640;   6.935;  20.350; 308.941; 306.605;;;;
2001-01-20T00:20:41.899Z;2;1.5410e-01;1;     0.256;    34.439;   3525.513; 1;   3525.513;   3525.681;   3542.775;   3508.335;;;;;;;;;;;;;;;;;;;;;;;; 304.445; 201.284;   6.926;  20.349; 308.938; 306.756;;;;
2001-01-20T00:21:45.899Z;2;1.5410e-01;1;     0.256;    34.416;   3525.513; 1;   3525.513;   3525.681;   3542.763;   3508.347;;;;;;;;;;;;;;;;;;;;;;;; 304.454; 201.927;   6.916;  20.349; 308.934; 306.907;;;;
2001-01-20T00:22:49.898Z;2;1.5410e-01;1;     0.256;    34.361;   3525.513; 1;   3525.513;   3525.680;   3542.735;   3508.374;;;;;;;;;;;;;;;;;;;;;;;; 304.463; 202.571;   6.905;  20.348; 308.928; 307.058;;;;
2001-01-20T00:23:53.898Z;2;1.5410e-01;1;     0.256;    35.223;   3525.513; 1;   3525.513;   3525.689;   3543.168;   3507.946;;;;;;;;;;;;;;;;;;;;;;;; 304.471; 203.215;   6.892;  20.348; 308.920; 307.209;;;;
2001-01-20T00:24:57.897Z;2;1.5410e-01;1;     0.256;    34.740;   3525.513; 1;   3525.513;   3525.684;   3542.926;   3508.186;;;;;;;;;;;;;;;;;;;;;;;; 304.480; 203.859;   6.878;  20.347; 308.910; 307.360;;;;
2001-01-20T00:26:01.897Z;2;1.5410e-01;1;     0.256;    34.408;   3525.513; 1;   3525.513;   3525.681;   3542.759;   3508.351;;;;;;;;;;;;;;;;;;;;;;;; 304.489; 204.503;   6.863;  20.347; 308.899; 307.511;;;;
2001-01-20T00:27:05.896Z;2;1.5410e-01;1;     0.256;    35.637;   3525.513; 1;   3525.513;   3525.693;   3543.376;   3507.740;;;;;;;;;;;;;;;;;;;;;;;; 304.497; 205.147;   6.846;  20.346; 308.886; 307.662;;;;
2001-01-20T00:28:09.896Z;2;1.5410e-01;1;     0.256;    34.411;   3525.513; 1;   3525.513;   3525.681;   3542.760;   3508.350;;;;;;;;;;;;;;;;;;;;;;;; 304.506; 205.791;   6.828;  20.346; 308.872; 307.813;;;;
2001-01-20T00:29:13.896Z;2;1.5410e-01;1;     0.256;    34.934;   3525.513; 1;   3525.513;   3525.686;   3543.023;   3508.089;;;;;;;;;;;;;;;;;;;;;;;; 304.515; 206.435;   6.809;  20.345; 308.856; 307.964;;;;
2001-01-20T00:30:17.895Z;2;1.5410e-01;1;     0.256;    36.004;   3525.513; 1;   3525.513;   3525.697;   3543.561;   3507.557;;;;;;;;;;;;;;;;;;;;;;;; 304.523; 207.079;   6.789;  20.345; 308.839; 308.115;;;;
2001-01-20T00:31:21.895Z;2;1.5410e-01;1;     0.256;    34.963;   3525.513; 1;   3525.513;   3525.686;   3543.038;   3508.075;;;;;;;;;;;;;;;;;;;;;;;; 304.532; 207.723;   6.767;  20.345; 308.820; 308.266;;;;
2001-01-20T00:32:25.894Z;2;1.4740e-01;1;     0.262;    34.484;   3447.467; 1;   3447.467;   3447.639;   3464.752;   3430.268;;;;;;;;;;;;;;;;;;;;;;;; 304.540; 208.367;   6.744;  20.344; 308.799; 308.417;;;;
2001-01-20T00:33:29.894Z;2;1.4740e-01;1;     0.262;    33.211;   3447.467; 1;   3447.467;   3447.627;   3464.113;   3430.902;;;;;;;;;;;;;;;;;;;;;;;; 304.549; 209.011;   6.720;  20.344; 308.777; 308.568;;;;
2001-01-20T00:34:33.893Z;2;1.5410e-01;1;     0.256;    35.524;   3525.513; 1;   3525.513;   3525.692;   3543.320;   3507.795;;;;;;;;;;;;;;;;;;;;;;;; 304.558; 209.655;   6.694;  20.344; 308.753; 308.719;;;;
2001-01-20T00:35:37.893Z;2;1.4740e-01;1;     0.262;    34.209;   3447.467; 1;   3447.467;   3447.637;   3464.614;   3430.405;;;;;;;;;;;;;;;;;;;;;;;; 304.566; 210.299;   6.667;  20.343; 308.728; 308.870;;;;
2001-01-20T00:36:41.892Z;2;1.4740e-01;1;     0.262;    37.139;   3447.467; 1;   3447.467;   3447.667;   3466.087;   3428.948;;;;;;;;;;;;;;;;;;;;;;;; 304.575; 210.943;   6.639;  20.343; 308.702; 309.021;;;;
2001-01-20T00:37:45.892Z;2;1.4740e-01;1;     0.262;    36.100;   3447.467; 1;   3447.467;   3447.656;   3465.564;   3429.464;;;;;;;;;;;;;;;;;;;;;;;; 304.584; 211.587;   6.610;  20.343; 308.674; 309.172;;;;
2001-01-20T00:38:49.891Z;2;1.5410e-01;1;     0.256;    34.477;   3525.513; 1;   3525.513;   3525.681;   3542.794;   3508.316;;;;;;;;;;;;;;;;;;;;;;;; 304.592; 212.231;   6.579;  20.342; 308.644; 309.323;;;;
2001-01-20T00:39:53.891Z;2;1.5410e-01;1;     0.256;    37.154;   3525.513; 1;   3525.513;   3525.709;   3544.139;   3506.985;;;;;;;;;;;;;;;;;;;;;;;; 304.601; 212.875;   6.548;  20.342; 308.614; 309.474;;;;
2001-01-20T00:40:57.891Z;2;1.5410e-01;1;     0.256;    37.029;   3525.513; 1;   3525.513;   3525.707;   3544.076;   3507.047;;;;;;;;;;;;;;;;;;;;;;;; 304.610; 213.519;   6.514;  20.342; 308.582; 309.625;;;;
2001-01-20T00:42:01.890Z;2;1.5410e-01;1;     0.256;    36.935;   3525.513; 1;   3525.513;   3525.706;   3544.029;   3507.094;;;;;;;;;;;;;;;;;;;;;;;; 304.618; 214.163;   6.480;  20.342; 308.548; 309.776;;;;
2001-01-20T00:43:05.890Z;2;1.4740e-01;1;     0.262;    35.380;   3447.467; 1;   3447.467;   3447.649;   3465.203;   3429.822;;;;;;;;;;;;;;;;;;;;;;;; 304.627; 214.807;   6.445;  20.341; 308.514; 309.927;;;;
2001-01-20T00:44:09.889Z;2;1.4740e-01;1;     0.262;    33.712;   3447.467; 1;   3447.467;   3447.632;   3464.364;   3430.652;;;;;;;;;;;;;;;;;;;;;;;; 304.635; 215.451;   6.408;  20.341; 308.478; 310.078;;;;
2001-01-20T00:45:13.889Z;2;1.4740e-01;1;     0.262;    35.095;   3447.467; 1;   3447.467;   3447.646;   3465.059;   3429.964;;;;;;;;;;;;;;;;;;;;;;;; 304.644; 216.095;   6.370;  20.341; 308.441; 310.229;;;;
2001-01-20T00:46:17.888Z;2;1.4740e-01;1;     0.262;    34.378;   3447.467; 1;   3447.467;   3447.638;   3464.699;   3430.321;;;;;;;;;;;;;;;;;;;;;;;; 304.653; 216.738;   6.330;  20.341; 308.402; 310.380;;;;
2001-01-20T00:47:21.888Z;2;1.4740e-01;1;     0.262;    33.877;   3447.467; 1;   3447.467;   3447.634;   3464.447;   3430.570;;;;;;;;;;;;;;;;;;;;;;;; 304.661; 217.382;   6.290;  20.341; 308.363; 310.531;;;;
2001-01-20T00:48:25.887Z;2;1.4740e-01;1;     0.262;    34.372;   3447.467; 1;   3447.467;   3447.638;   3464.696;   3430.324;;;;;;;;;;;;;;;;;;;;;;;; 304.670; 218.026;   6.248;  20.341; 308.322; 310.682;;;;
2001-01-20T00:49:29.887Z;2;1.4740e-01;1;     0.262;    36.032;   3447.467; 1;   3447.467;   3447.655;   3465.530;   3429.498;;;;;;;;;;;;;;;;;;;;;;;; 304.679; 218.670;   6.205;  20.341; 308.281; 310.833;;;;
2001-01-20T00:50:33.886Z;2;1.4740e-01;1;     0.262;    37.259;   3447.467; 1;   3447.467;   3447.668;   3466.147;   3428.888;;;;;;;;;;;;;;;;;;;;;;;; 304.687; 219.314;   6.161;  20.341; 308.238; 310.984;;;;
2001-01-20T00:51:37.886Z;2;1.4740e-01;1;     0.262;    37.459;   3447.467; 1;   3447.467;   3447.671;   3466.247;   3428.789;;;;;;;;;;;;;;;;;;;;;;;; 304.696; 219.958;   6.116;  20.341; 308.194; 311.135;;;;
2001-01-20T00:52:41.886Z;2;1.4740e-01;1;     0.262;    35.807;   3447.467; 1;   3447.467;   3447.653;   3465.417;   3429.610;;;;;;;;;;;;;;;;;;;;;;;; 304.705; 220.602;   6.070;  20.341; 308.150; 311.286;;;;
2001-01-20T00:53:45.885Z;2;1.4740e-01;1;     0.262;    34.652;   3447.467; 1;   3447.467;   3447.641;   3464.836;   3430.185;;;;;;;;;;;;;;;;;;;;;;;; 304.713; 221.246;   6.022;  20.341; 308.104; 311.437;;;;
2001-01-20T00:54:49.885Z;2;1.4740e-01;1;     0.262;    35.714;   3447.467; 1;   3447.467;   3447.652;   3465.370;   3429.656;;;;;;;;;;;;;;;;;;;;;;;; 304.722; 221.890;   5.973;  20.341; 308.058; 311.588;;;;
2001-01-20T00:55:53.884Z;2;1.4740e-01;1;     0.262;    36.369;   3447.467; 1;   3447.467;   3447.659;   3465.700;   3429.330;;;;;;;;;;;;;;;;;;;;;;;; 304.730; 222.534;   5.923;  20.341; 308.010; 311.739;;;;
2001-01-20T00:56:57.884Z;2;1.4740e-01;1;     0.262;    35.595;   3447.467; 1;   3447.467;   3447.651;   3465.310;   3429.716;;;;;;;;;;;;;;;;;;;;;;;; 304.739; 223.178;   5.872;  20.341; 307.962; 311.890;;;;
2001-01-20T00:58:01.884Z;2;1.4740e-01;1;     0.262;    35.332;   3447.467; 1;   3447.467;   3447.648;   3465.178;   3429.846;;;;;;;;;;;;;;;;;;;;;;;; 304.748; 223.822;   5.820;  20.341; 307.913; 312.041;;;;
2001-01-20T00:59:05.883Z;2;1.4740e-01;1;     0.262;    36.457;   3447.467; 1;   3447.467;   3447.660;   3465.744;   3429.287;;;;;;;;;;;;;;;;;;;;;;;; 304.756; 224.466;   5.766;  20.341; 307.864; 312.192;;;;
2001-01-20T01:00:09.882Z;2;1.3480e-01;1;     0.255;    35.252;   3296.520; 1;   3296.520;   3296.708;   3314.193;   3278.941;;;;;;;;;;;;;;;;;;;;;;;; 304.765; 225.110;   5.711;  20.341; 307.814; 312.343;;;;
2001-01-20T01:01:13.882Z;2;1.3480e-01;1;     0.255;    34.302;   3296.520; 1;   3296.520;   3296.698;   3313.716;   3279.414;;;;;;;;;;;;;;;;;;;;;;;; 304.774; 225.754;   5.656;  20.341; 307.763; 312.494;;;;
2001-01-20T01:02:17.882Z;2;1.3480e-01;1;     0.255;    36.130;   3296.520; 1;   3296.520;   3296.718;   3314.635;   3278.504;;;;;;;;;;;;;;;;;;;;;;;; 304.782; 226.398;   5.599;  20.342; 307.711; 312.645;;;;
2001-01-20T01:03:21.881Z;2;1.3480e-01;1;     0.255;    35.513;   3296.520; 1;   3296.520;   3296.711;   3314.324;   3278.811;;;;;;;;;;;;;;;;;;;;;;;; 304.791; 227.042;   5.541;  20.342; 307.659; 312.795;;;;
2001-01-20T01:04:25.881Z;2;1.3480e-01;1;     0.255;    34.320;   3296.520; 1;   3296.520;   3296.699;   3313.725;   3279.405;;;;;;;;;;;;;;;;;;;;;;;; 304.800; 227.686;   5.482;  20.342; 307.607; 312.946;;;;
2001-01-20T01:05:29.880Z;2;1.3480e-01;1;     0.255;    35.974;   3296.520; 1;   3296.520;   3296.716;   3314.556;   3278.582;;;;;;;;;;;;;;;;;;;;;;;; 304.808; 228.330;   5.421;  20.342; 307.554; 313.097;;;;
2001-01-20T01:06:33.880Z;2;1.3480e-01;1;     0.255;    33.274;   3296.520; 1;   3296.520;   3296.688;   3313.199;   3279.925;;;;;;;;;;;;;;;;;;;;;;;; 304.817; 228.974;   5.360;  20.342; 307.500; 313.248;;;;
2001-01-20T01:07:37.879Z;2;1.3480e-01;1;     0.255;    32.834;   3296.520; 1;   3296.520;   3296.684;   3312.978;   3280.144;;;;;;;;;;;;;;;;;;;;;;;; 304.825; 229.618;   5.298;  20.343; 307.446; 313.399;;;;
2001-01-20T01:08:41.879Z;2;1.3480e-01;1;     0.255;    35.046;   3296.520; 1;   3296.520;   3296.706;   3314.090;   3279.044;;;;;;;;;;;;;;;;;;;;;;;; 304.834; 230.262;   5.234;  20.343; 307.392; 313.550;;;;
2001-01-20T01:09:45.879Z;2;1.2890e-01;1;     0.261;    33.923;   3223.543; 1;   3223.543;   3223.721;   3240.549;   3206.626;;;;;;;;;;;;;;;;;;;;;;;; 304.843; 230.906;   5.170;  20.343; 307.338; 313.701;;;;
2001-01-20T01:10:49.878Z;2;1.2320e-01;1;     0.267;    34.573;   3152.181; 1;   3152.181;   3152.371;   3169.515;   3134.942;;;;;;;;;;;;;;;;;;;;;;;; 304.851; 231.549;   5.104;  20.344; 307.283; 313.852;;;;
2001-01-20T01:11:53.878Z;2;1.2890e-01;1;     0.261;    38.426;   3223.543; 1;   3223.543;   3223.772;   3242.813;   3204.387;;;;;;;;;;;;;;;;;;;;;;;; 304.860; 232.193;   5.037;  20.344; 307.229; 314.003;;;;
2001-01-20T01:12:57.877Z;2;1.2890e-01;1;     0.261;    36.248;   3223.543; 1;   3223.543;   3223.747;   3241.718;   3205.470;;;;;;;;;;;;;;;;;;;;;;;; 304.869; 232.837;   4.969;  20.345; 307.174; 314.154;;;;
2001-01-20T01:14:01.877Z;2;1.2890e-01;1;     0.261;    33.953;   3223.543; 1;   3223.543;   3223.722;   3240.564;   3206.611;;;;;;;;;;;;;;;;;;;;;;;; 304.877; 233.481;   4.901;  20.345; 307.119; 314.305;;;;
2001-01-20T01:15:05.877Z;2;1.2890e-01;1;     0.261;    35.430;   3223.543; 1;   3223.543;   3223.738;   3241.307;   3205.876;;;;;;;;;;;;;;;;;;;;;;;; 304.886; 234.125;   4.831;  20.345; 307.064; 314.456;;;;
2001-01-20T01:16:09.876Z;2;1.2890e-01;1;     0.261;    33.193;   3223.543; 1;   3223.543;   3223.714;   3240.182;   3206.989;;;;;;;;;;;;;;;;;;;;;;;; 304.895; 234.769;   4.760;  20.346; 307.009; 314.607;;;;
2001-01-20T01:17:13.876Z;2;1.2890e-01;1;     0.261;    33.837;   3223.543; 1;   3223.543;   3223.720;   3240.506;   3206.669;;;;;;;;;;;;;;;;;;;;;;;; 304.903; 235.413;   4.688;  20.346; 306.954; 314.758;;;;
2001-01-20T01:18:17.875Z;2;1.2890e-01;1;     0.261;    32.624;   3223.543; 1;   3223.543;   3223.708;   3239.896;   3207.272;;;;;;;;;;;;;;;;;;;;;;;; 304.912; 236.057;   4.615;  20.347; 306.899; 314.909;;;;
2001-01-20T01:19:21.875Z;2;1.2890e-01;1;     0.261;    33.651;   3223.543; 1;   3223.543;   3223.719;   3240.413;   3206.761;;;;;;;;;;;;;;;;;;;;;;;; 304.920; 236.701;   4.541;  20.347; 306.844; 315.060;;;;
2001-01-20T01:20:25.874Z;2;1.2890e-01;1;     0.261;    35.073;   3223.543; 1;   3223.543;   3223.734;   3241.127;   3206.054;;;;;;;;;;;;;;;;;;;;;;;; 304.929; 237.345;   4.467;  20.348; 306.790; 315.211;;;;
2001-01-20T01:21:29.874Z;2;1.2890e-01;1;     0.261;    34.667;   3223.543; 1;   3223.543;   3223.729;   3240.923;   3206.256;;;;;;;;;;;;;;;;;;;;;;;; 304.938; 237.989;   4.391;  20.348; 306.736; 315.362;;;;
2001-01-20T01:22:33.873Z;2;1.2890e-01;1;     0.261;    34.989;   3223.543; 1;   3223.543;   3223.733;   3241.085;   3206.096;;;;;;;;;;;;;;;;;;;;;;;; 304.946; 238.633;   4.314;  20.349; 306.682; 315.513;;;;
2001-01-20T01:23:37.873Z;2;1.2890e-01;1;     0.261;    33.643;   3223.543; 1;   3223.543;   3223.719;   3240.408;   3206.765;;;;;;;;;;;;;;;;;;;;;;;; 304.955; 239.277;   4.236;  20.350; 306.628; 315.664;;;;
2001-01-20T01:24:41.872Z;2;1.2890e-01;1;     0.261;    35.792;   3223.543; 1;   3223.543;   3223.742;   3241.489;   3205.697;;;;;;;;;;;;;;;;;;;;;;;; 304.964; 239.921;   4.157;  20.350; 306.575; 315.815;;;;
2001-01-20T01:25:45.872Z;2;1.2890e-01;1;     0.261;    35.209;   3223.543; 1;   3223.543;   3223.735;   3241.196;   3205.986;;;;;;;;;;;;;;;;;;;;;;;; 304.972; 240.565;   4.078;  20.351; 306.522; 315.966;;;;
2001-01-20T01:26:49.871Z;2;1.2890e-01;1;     0.261;    34.471;   3223.543; 1;   3223.543;   3223.727;   3240.825;   3206.354;;;;;;;;;;;;;;;;;;;;;;;; 304.981; 241.209;   3.997;  20.351; 306.470; 316.116;;;;
2001-01-20T01:27:53.871Z;2;1.2890e-01;1;     0.261;    38.026;   3223.543; 1;   3223.543;   3223.767;   3242.612;   3204.586;;;;;;;;;;;;;;;;;;;;;;;; 304.990; 241.853;   3.916;  20.352; 306.419; 316.267;;;;
2001-01-20T01:28:57.871Z;2;1.2890e-01;1;     0.261;    35.716;   3223.543; 1;   3223.543;   3223.741;   3241.450;   3205.734;;;;;;;;;;;;;;;;;;;;;;;; 304.998; 242.497;   3.833;  20.353; 306.368; 316.418;;;;
2001-01-20T01:30:01.870Z;2;1.2890e-01;1;     0.261;    34.377;   3223.543; 1;   3223.543;   3223.726;   3240.777;   3206.400;;;;;;;;;;;;;;;;;;;;;;;; 305.007; 243.141;   3.750;  20.353; 306.317; 316.569;;;;
2001-01-20T01:31:05.870Z;2;1.2890e-01;1;     0.261;    38.868;   3223.543; 1;   3223.543;   3223.777;   3243.035;   3204.168;;;;;;;;;;;;;;;;;;;;;;;; 305.015; 243.785;   3.666;  20.354; 306.268; 316.720;;;;
2001-01-20T01:32:09.869Z;2;1.2890e-01;1;     0.261;    37.231;   3223.543; 1;   3223.543;   3223.758;   3242.212;   3204.981;;;;;;;;;;;;;;;;;;;;;;;; 305.024; 244.429;   3.581;  20.355; 306.219; 316.871;;;;
2001-01-20T01:33:13.869Z;2;1.2890e-01;1;     0.261;    37.367;   3223.543; 1;   3223.543;   3223.760;   3242.281;   3204.914;;;;;;;;;;;;;;;;;;;;;;;; 305.033; 245.073;   3.495;  20.355; 306.171; 317.022;;;;
2001-01-20T01:34:17.868Z;2;1.2890e-01;1;     0.261;    37.670;   3223.543; 1;   3223.543;   3223.763;   3242.433;   3204.763;;;;;;;;;;;;;;;;;;;;;;;; 305.041; 245.717;   3.408;  20.356; 306.123; 317.173;;;;
2001-01-20T01:35:21.868Z;2;1.2890e-01;1;     0.261;    33.238;   3223.543; 1;   3223.543;   3223.714;   3240.205;   3206.967;;;;;;;;;;;;;;;;;;;;;;;; 305.050; 246.361;   3.321;  20.357; 306.077; 317.324;;;;
2001-01-20T01:36:25.867Z;2;1.2890e-01;1;     0.261;    34.643;   3223.543; 1;   3223.543;   3223.729;   3240.911;   3206.268;;;;;;;;;;;;;;;;;;;;;;;; 305.059; 247.005;   3.232;  20.358; 306.032; 317.475;;;;
2001-01-20T01:37:29.867Z;2;1.2890e-01;1;     0.261;    37.236;   3223.543; 1;   3223.543;   3223.758;   3242.215;   3204.979;;;;;;;;;;;;;;;;;;;;;;;; 305.067; 247.648;   3.143;  20.359; 305.987; 317.626;;;;
2001-01-20T01:38:33.867Z;2;1.2890e-01;1;     0.261;    36.869;   3223.543; 1;   3223.543;   3223.754;   3242.030;   3205.161;;;;;;;;;;;;;;;;;;;;;;;; 305.076; 248.292;   3.053;  20.359; 305.944; 317.777;;;;
2001-01-20T01:39:37.866Z;2;1.2890e-01;1;     0.261;    32.689;   3223.543; 1;   3223.543;   3223.709;   3239.929;   3207.240;;;;;;;;;;;;;;;;;;;;;;;; 305.085; 248.936;   2.962;  20.360; 305.902; 317.928;;;;
2001-01-20T01:40:41.866Z;2;1.2890e-01;1;     0.261;    32.476;   3223.543; 1;   3223.543;   3223.707;   3239.822;   3207.346;;;;;;;;;;;;;;;;;;;;;;;; 305.093; 249.580;   2.871;  20.361; 305.860; 318.079;;;;
2001-01-20T01:41:45.865Z;2;1.2890e-01;1;     0.261;    -1.000;   3223.543; 1;   3223.543;     -1.000;     -1.000;     -1.000;;;;;;;;;;;;;;;;;;;;;;;; 305.102; 250.224;   2.778;  20.362; 305.820; 318.229;;;;
2001-01-20T01:42:49.865Z;2;1.2890e-01;1;     0.261;    -1.000;   3223.543; 1;   3223.543;     -1.000;     -1.000;     -1.000;;;;;;;;;;;;;;;;;;;;;;;; 305.111; 250.868;   2.685;  20.363; 305.782; 318.380;;;;
2001-01-20T01:43:53.864Z;2;1.2890e-01;1;     0.261;    -1.000;   3223.543; 1;   3223.543;     -1.000;     -1.000;     -1.000;;;;;;;;;;;;;;;;;;;;;;;; 305.119; 251.512;   2.591;  20.363; 305.744; 318.531;;;;
2001-01-20T01:44:57.864Z;2;1.2890e-01;1;     0.261;    -1.000;   3223.543; 1;   3223.543;     -1.000;     -1.000;     -1.000;;;;;;;;;;;;;;;;;;;;;;;; 305.128; 252.156;   2.497;  20.364; 305.708; 318.682;;;;
2001-01-20T01:59:53.858Z;2;1.2890e-01;1;     0.261;    33.495;   3223.543; 1;   3223.543;   3223.717;   3240.334;   3206.839;;;;;;;;;;;;;;;;;;;;;;;; 305.249; 261.172;   1.101;  20.377; 305.362; 320.795;;;;
2001-01-20T02:00:57.857Z;2;1.2890e-01;1;     0.261;    34.343;   3223.543; 1;   3223.543;   3223.726;   3240.760;   3206.417;;;;;;;;;;;;;;;;;;;;;;;; 305.257; 261.816;   0.997;  20.378; 305.350; 320.946;;;;
2001-01-20T02:02:01.857Z;2;1.2890e-01;1;     0.261;    34.671;   3223.543; 1;   3223.543;   3223.729;   3240.925;   3206.254;;;;;;;;;;;;;;;;;;;;;;;; 305.266; 262.460;   0.892;  20.379; 305.340; 321.097;;;;
2001-01-20T02:03:05.857Z;2;1.2890e-01;1;     0.261;    34.228;   3223.543; 1;   3223.543;   3223.725;   3240.702;   3206.474;;;;;;;;;;;;;;;;;;;;;;;; 305.275; 263.104;   0.787;  20.380; 305.332; 321.247;;;;
2001-01-20T02:04:09.856Z;2;1.2890e-01;1;     0.261;    37.334;   3223.543; 1;   3223.543;   3223.759;   3242.264;   3204.930;;;;;;;;;;;;;;;;;;;;;;;; 305.283; 263.747;   0.681;  20.381; 305.326; 321.398;;;;
2001-01-20T02:05:13.855Z;2;1.2890e-01;1;     0.261;    36.393;   3223.543; 1;   3223.543;   3223.748;   3241.791;   3205.398;;;;;;;;;;;;;;;;;;;;;;;; 305.292; 264.391;   0.575;  20.382; 305.323; 321.549;;;;
2001-01-20T02:06:17.855Z;2;1.2890e-01;1;     0.261;    36.250;   3223.543; 1;   3223.543;   3223.747;   3241.719;   3205.469;;;;;;;;;;;;;;;;;;;;;;;; 305.301; 265.035;   0.468;  20.383; 305.321; 321.700;;;;